Regional Weather Roundup
Issued by NWS State College, PA

Home | Current Version | Previous Version | Text Only | Print | Product List | Glossary Off
Versions: 1 2 3 4 5 6 7 8 9 10 11 12 13 14 15 16 17 18 19 20 21 22 23 24 25 26 27 28 29 30 31 32 33 34 35 36 37 38 39 40 41 42 43 44 45 46 47 48 49 50

000
ASUS41 KCTP 312210
RWRCTP

REGIONAL WEATHER ROUNDUP
NATIONAL WEATHER SERVICE STATE COLLEGE PA
600 PM EDT MON AUG 31 2015

Note: "fair" indicates few or no clouds below 12,000 feet with no
significant weather and/or obstructions to visibility.

* = STATION THAT DOES NOT REPORT PRECIPITATION /E.G. RAIN...SNOW...ETC/
    THUNDER OR FOG.

PAZ002>004-007>009-013>016-020>023-029>032-312300-
WESTERN PENNSYLVANIA

CITY           SKY/WX    TMP DP  RH WIND       PRES   REMARKS
ERIE           SUNNY     80  65  59 W6        30.06S
MEADVILLE      SUNNY     81  66  60 NW6       30.08F
FRANKLIN*      SUNNY     81  66  61 NW6       30.09F
NEW CASTLE     FAIR      86  70  58 CALM      30.06F
BEAVER COUNTY  SUNNY     84  64  51 CALM      30.06F
BUTLER*        SUNNY     84  66  54 NW5       30.08S
PITTSBURGH INT MOSUNNY   87  62  43 NW6       30.05F
PITTSBURGH     SUNNY     84  56  38 NW5       30.05S
INDIANA*       MOSUNNY   86  64  48 VRB5      30.09S
LATROBE        MOSUNNY   84  63  48 NW6       30.06S
WASHINGTON CO* SUNNY     86  63  45 SW6       30.07S
$$

PAZ004>006-010>012-017>019-024>028-033>037-041-042-045-046-049>053-312300-
CENTRAL PENNSYLVANIA

CITY           SKY/WX    TMP DP  RH WIND       PRES   REMARKS
BRADFORD       SUNNY     81  63  54 W12       30.09F
DUBOIS         MOSUNNY   84  63  49 NW10      30.07F
CLEARFIELD     SUNNY     84  63  49 W8        30.06F
JOHNSTOWN      PTSUNNY   81  60  48 NW7       30.11S
ALTOONA        MOSUNNY   82  66  58 S5        30.07S
STATE COLLEGE  MOSUNNY   84  66  54 W7        30.05R
WILLIAMSPORT   SUNNY     86  69  56 S3        29.98S
SELINSGROVE    MOSUNNY   83  71  67 CALM      30.00R
FT INDIANTOWN  MOSUNNY   87  67  50 W10       30.01R
CAPITAL CITY   PTSUNNY   86  66  51 SW9       30.01S
HARRISBURG     PTSUNNY   86  71  60 SW5       30.00S
YORK           PTSUNNY   82  71  69 SW3       30.02S
$$

PAZ038>040-043-044-047-048-054-055-060>062-067>071-312300-
EASTERN PENNSYLVANIA

CITY           SKY/WX    TMP DP  RH WIND       PRES   REMARKS
SCRANTON       MOSUNNY   85  66  53 SW7       30.00S
MOUNT POCONO   MOSUNNY   79  63  57 W9        30.06S
ALLENTOWN      SUNNY     87  66  49 W10       29.99R
QUAKERTOWN*    CLEAR     88  66  48 W7        30.01R
READING        MOSUNNY   87  67  51 SW12      30.00R
LANCASTER      PTSUNNY   86  66  51 W12       30.01S
COATESVILLE    PTCLDY    82  72  69 SW3       30.04S
POTTSTOWN      PTSUNNY   86  66  51 SW7       30.01R
BLUE BELL      MOSUNNY   88  68  51 SW6       30.00R
DOYLESTOWN     MOSUNNY   84  66  54 SW6       29.99R
WILLOW GROVE   NOT AVBL
NORTH PHILA    PTSUNNY   89  63  41 W13       30.00S
PHILADELPHIA   PTSUNNY   88  69  53 SW14      30.00S
$$


USA.gov is the U.S. government's official web portal to all federal, state and local government web resources and services.